Location: Catstown
(52.4386°N, 7.2633°W)
Time: 00:59:10
(UTC+00:00)

Cosmos 1844 Rocket - Pass Details

Date: 18 September 2020
Orbit: 823 x 846 km, 71.0° (Epoch: 30 October)

Event Time Altitude Azimuth Distance (km) Brightness Sun altitude
Rises 19:39:17 0° 167° (SSE) 3,347 5.5 -10.3°
Reaches altitude 10° 19:42:09 10° 153° (SSE) 2,421 4.7 -10.7°
Maximum altitude 19:46:25 23° 102° (ESE) 1,685 3.7 -11.4°
Drops below altitude 10° 19:50:42 10° 52° (NE) 2,442 4.8 -12.0°
Sets 19:53:35 0° 39° (NE) 3,385 5.6 -12.4°
